This is the latest recevied weather packets stored in our database for station/object K3HW. If no packets are shown the sender has not sent any weather packets the latest 10 day(s).
| Time | Temp. | Humidity | Pressure | Rain* | Wind** | Luminosity | Snow |
|---|---|---|---|---|---|---|---|
| 1777724760 | 10° C | 70% | 1016.8 hPa | 0 mm | - | 67 W/m² | - |
| 1777724457 | 10° C | 71% | 1016.8 hPa | 0 mm | - | 85 W/m² | - |
| 1777724155 | 10° C | 71% | 1016.8 hPa | 0 mm | - | 69 W/m² | - |
| 1777723852 | 9.44° C | 72% | 1016.6 hPa | 0 mm | - | 48 W/m² | - |
| 1777723548 | 9.44° C | 74% | 1016.5 hPa | 0 mm | - | 43 W/m² | - |
| 1777723246 | 10° C | 75% | 1016.7 hPa | 0 mm | - | 49 W/m² | - |
| 1777722639 | 10° C | 76% | 1016.4 hPa | 0 mm | - | 30 W/m² | - |
| 1777722033 | 10° C | 79% | 1016.5 hPa | 0 mm | - | 48 W/m² | - |
| 1777721731 | 10° C | 80% | 1016.4 hPa | 0 mm | - | 34 W/m² | - |
| 1777721429 | 10° C | 80% | 1016.2 hPa | 0 mm | - | 28 W/m² | - |
| 1777721126 | 10° C | 80% | 1016.3 hPa | 0 mm | - | 30 W/m² | - |
| 1777720824 | 10° C | 81% | 1016 hPa | 0 mm | - | 27 W/m² | - |
| 1777720521 | 10° C | 81% | 1016.1 hPa | 0 mm | - | 24 W/m² | - |
| 1777720218 | 10° C | 81% | 1016 hPa | 0 mm | - | 23 W/m² | - |
| 1777719915 | 10° C | 81% | 1016 hPa | 0 mm | - | 19 W/m² | - |
| 1777719613 | 10° C | 81% | 1015.9 hPa | 0 mm | - | 21 W/m² | - |
| 1777719310 | 10° C | 81% | 1015.9 hPa | 0 mm | - | 20 W/m² | - |
| 1777719008 | 9.44° C | 81% | 1015.6 hPa | 0 mm | - | 16 W/m² | - |
| 1777718705 | 9.44° C | 81% | 1015.5 hPa | 0 mm | - | 16 W/m² | - |
| 1777718402 | 9.44° C | 81% | 1015.6 hPa | 0 mm | - | 15 W/m² | - |
| 1777718099 | 9.44° C | 81% | 1015.8 hPa | 0 mm | - | 13 W/m² | - |
| 1777717796 | 9.44° C | 81% | 1015.6 hPa | 0 mm | - | 11 W/m² | - |
| 1777717494 | 9.44° C | 81% | 1015.8 hPa | 0 mm | - | 9 W/m² | - |
| 1777717190 | 9.44° C | 82% | 1015.6 hPa | 0 mm | - | 6 W/m² | - |
| 1777716889 | 8.89° C | 84% | 1015.7 hPa | 0 mm | - | 4 W/m² | - |
* Rain latest hour (hover to see other rain measurements)
** Current wind speed in m/s (hover to see current wind gust speed)